Regional Weather Roundup
Issued by NWS Sioux Falls, SD

Home | Current Version | Previous Version | Graphics & Text | Print | Product List | Glossary Off
Versions: 1 2 3 4 5 6 7 8 9 10 11 12 13 14 15 16 17 18 19 20 21 22 23 24 25 26 27 28 29 30 31 32 33 34 35 36 37 38 39 40 41 42 43 44 45 46 47 48 49 50

000
ASUS43 KFSD 220910
RWRFSD

WEATHER ROUNDUP FOR SE SOUTH DAKOTA/SW MINNESOTA/NW IOWA
NATIONAL WEATHER SERVICE SIOUX FALLS SD
400 AM CDT FRI JUL 22 2016

NOTE: "FAIR" INDICATES FEW OR NO CLOUDS BELOW 12,000 FEET WITH NO
SIGNIFICANT WEATHER AND OR OBSTRUCTIONS TO VISIBILITY.


SDZ038>040-050-052>070-221000-
SOUTHEAST SOUTH DAKOTA

CITY           SKY/WX    TMP DP  RH WIND       PRES   REMARKS
BROOKINGS      CLEAR     76  71  85 E5        29.99S
CHAMBERLAIN    MOCLDY    80  80 100 E6        29.95S
HURON          CLEAR     78  75  90 SE7       29.93S
MADISON        FAIR      75  75 100 NE6       29.99S
MITCHELL       PTCLDY    79  77  94 E9        29.94F
SIOUX FALLS    PTCLDY    79  76  90 NE10      29.96S
WINNER         FAIR      77  74  90 CALM      29.98S FOG
YANKTON        CLEAR     79  75  89 N7        29.91S
$$

MNZ071-072-080-081-089-090-097-098-221000-
SOUTHWEST MINNESOTA

CITY           SKY/WX    TMP DP  RH WIND       PRES   REMARKS
FAIRMONT         N/A    N/A N/A N/A MISG        N/A
JACKSON        CLEAR     77  73  88 E7        29.98F
LUVERNE        PTCLDY    77  72  83 NE7       29.97S
MARSHALL       CLEAR     72  71  97 CALM      29.99S
MONTEVIDEO     MOCLDY    68  66  94 SE3       29.99F FOG
REDWOOD FALLS  CLEAR     72  69  90 N3        29.97S
TRACY          CLEAR     75  73  93 CALM      29.99S
WINDOM         CLEAR     75  73  94 NE5       29.99S
WORTHINGTON    CLEAR     76  75  97 NE5       29.99F
$$

IAZ001>003-012>014-020>022-031-032-NEZ013-014-SDZ071-221000-
NORTHWEST IOWA

CITY           SKY/WX    TMP DP  RH WIND       PRES   REMARKS
CHEROKEE       CLEAR     78  77  99 CALM      29.94S
DENISON        CLEAR     77  77 100 CALM      29.92F
ESTHERVILLE    CLEAR     77  77 100 NE7       29.96F
LE MARS        CLEAR     79  77  94 CALM      29.93S
SHELDON        PTCLDY    77  77 100 NE6       29.94F FOG
SIOUX CITY     CLEAR     79  77  94 E5        29.90F
SPENCER        MOCLDY    78  76  93 E6        29.96S FOG
STORM LAKE     CLEAR     77  77 100 SE5       29.96S FOG
$$

ABBREVIATIONS USED IN REMARKS
   TC - TEMPERATURE IN CELSIUS
  WCI - WIND CHILL INDEX
   HX - HEAT INDEX
  VSB - VISIBILITY





USA.gov is the U.S. government's official web portal to all federal, state and local government web resources and services.